FW2977 Weather Reports


Display with metric or nautical units.
time (UTC)temp
F
wind
direction
speed
MPH
gust
MPH
rain 1hr
in
rain 24hr
in
rain mn
in
humidity
%
barometer
mb
20260504033022 49 128 3.0 4.0 0.00 0.00 0.00 55 957.2
20260504031518 49 235 0.0 0.0 0.00 0.00 0.00 55 957.2
20260504030028 48 235 0.0 0.0 0.00 0.00 0.00 56 957.2
20260504024517 48 235 0.0 2.0 0.00 0.00 0.00 57 957.3
20260504023017 49 235 0.0 4.0 0.00 0.00 0.00 57 957.6
20260504021517 48 257 1.0 2.0 0.00 0.00 0.00 56 957.5
20260504020019 48 257 0.0 2.0 0.00 0.00 0.00 56 957.5
20260504014515 47 257 0.0 2.0 0.00 0.00 0.00 59 957.4
20260504013015 47 257 0.0 3.0 0.00 0.00 0.00 58 957.3
20260504011515 48 257 1.0 3.0 0.00 0.00 0.00 57 957.3
20260504010014 49 257 1.0 5.0 0.00 0.00 0.00 53 957.1
20260504004520 50 234 3.0 7.0 0.00 0.00 0.00 50 957.0
20260504003012 51 230 4.0 6.0 0.00 0.00 0.00 50 956.8
20260504001512 50 227 2.0 5.0 0.00 0.00 0.00 50 956.6
20260504000113 50 209 1.0 3.0 0.00 0.00 0.00 52 956.5
20260503234521 50 209 1.0 3.0 0.00 0.00 0.00 50 956.4
20260503233010 51 184 1.0 5.0 0.00 0.00 0.00 49 956.3
20260503231510 51 171 0.0 3.0 0.00 0.00 0.00 51 956.2
20260503230013 51 183 1.0 3.0 0.00 0.00 0.00 49 956.4
20260503224512 51 231 2.0 4.0 0.00 0.00 0.00 50 956.4
20260503223009 51 239 3.0 5.0 0.00 0.00 0.00 49 956.4
20260503221508 52 180 1.0 5.0 0.00 0.00 0.00 47 956.5
20260503220024 51 213 2.0 7.0 0.00 0.00 0.00 48 956.6
20260503214508 53 261 4.0 8.0 0.00 0.00 0.00 46 956.6
20260503213009 53 251 6.0 9.0 0.00 0.00 0.00 46 956.4
20260503211506 52 263 6.0 10.0 0.00 0.00 0.00 48 956.5
20260503210006 51 255 8.0 13.0 0.00 0.00 0.00 49 956.4
20260503204505 53 254 5.0 9.0 0.00 0.00 0.00 44 956.4
20260503203013 53 241 4.0 8.0 0.00 0.00 0.00 44 956.4
20260503201504 53 250 5.0 9.0 0.00 0.00 0.00 42 956.2
20260503200003 53 257 7.0 10.0 0.00 0.00 0.00 39 956.3
20260503194502 54 242 3.0 7.0 0.00 0.00 0.00 38 956.5
20260503193111 53 260 3.0 6.0 0.00 0.00 0.00 41 956.7
20260503191608 53 243 4.0 12.0 0.00 0.00 0.00 39 956.7
20260503184608 53 253 6.0 11.0 0.00 0.00 0.00 37 957.0
20260503183108 54 266 4.0 9.0 0.00 0.00 0.00 38 957.3
20260503181607 53 235 6.0 11.0 0.00 0.00 0.00 35 957.4
20260503180052 54 240 3.0 8.0 0.00 0.00 0.00 38 957.5
20260503174548 51 246 5.0 12.0 0.00 0.00 0.00 37 957.5
20260503173057 52 250 3.0 11.0 0.00 0.00 0.00 41 957.9
20260503171546 52 255 7.0 11.0 0.00 0.00 0.00 38 958.0
20260503160138 49 257 6.0 12.0 0.00 0.00 0.00 40 958.4
20260503081529 35 259 2.0 3.0 0.00 0.01 0.00 82 958.0
20260503071521 34 259 1.0 3.0 0.00 0.01 0.00 82 957.9
20260503054514 35 272 0.0 1.0 0.00 0.01 0.00 80 958.6
20260503053008 35 272 0.0 2.0 0.00 0.01 0.00 80 958.6
20260503051507 35 272 1.0 2.0 0.00 0.01 0.00 79 958.9
20260503050015 35 272 1.0 3.0 0.00 0.01 0.00 79 959.1
20260503044500 36 272 0.0 2.0 0.00 0.01 0.00 78 959.2
20260503043107 36 272 1.0 2.0 0.00 0.01 0.00 77 959.2
20260503041557 36 272 0.0 2.0 0.00 0.01 0.00 77 959.3
20260503040054 36 272 1.0 2.0 0.00 0.01 0.00 77 959.4
20260503034554 37 272 1.0 3.0 0.00 0.03 0.01 77 959.4